AirNav   Everest Fuels
 
 783 users online  

K38 Washington County Veteran's Memorial Airport
Washington, Kansas, USA

GOING TO WASHINGTON?


FAA INFORMATION EFFECTIVE 02 JANUARY 2020

Location

FAA Identifier: K38
Lat/Long: 39-44-06.6000N 097-02-51.3000W
39-44.110000N 097-02.855000W
39.7351667,-97.0475833
(estimated)
Elevation: 1436.5 ft. / 437.8 m (surveyed)
Variation: 06E (1990)
From city: 5 miles S of WASHINGTON, KS
Time zone: UTC -6 (UTC -5 during Daylight Saving Time)
Zip code: 66953

Airport Operations

Airport use: Open to the public
Activation date: 01/1980
Control tower: no
ARTCC: KANSAS CITY CENTER
FSS: WICHITA FLIGHT SERVICE STATION
NOTAMs facility: ICT (NOTAM-D service available)
Attendance: UNATNDD
Wind indicator: yes, WIND INDICATOR OTS INDEFLY.
Segmented circle: no
Lights: ACTVT MIRL RY 17/35 - CTAF.
Beacon: white-green (lighted land airport)
Operates sunset to sunrise.

Airport Communications

CTAF: 122.9
  • APCH/DEP SVC PRVDD BY KANSAS CITY ARTCC ON FREQS 127.35/257.975 (MANHATTAN RCAG).

Nearby radio navigation aids

VOR radial/distance  VOR name  Freq  Var
BIEr195/(36.5)BEATRICE VOR110.6007E
MHKr330/39.5MANHATTAN VOR/DME110.2004E

 
NDB name  Hdg/Dist  Freq  Var  ID
CLAY CENTER010/21.936204ECYW -.-. -.-- .--
FAIRBURY162/27.029306EFBY ..-. -... -.--

Airport Services

Parking: tiedowns

Runway Information

Runway 17/35

Dimensions: 3406 x 60 ft. / 1038 x 18 m
Surface: concrete, in good condition
Runway edge lights: medium intensity
Gradient: N.
RUNWAY 17  RUNWAY 35
Latitude: 39-44.390798N39-43.829835N
Longitude: 097-02.853932W097-02.856890W
Elevation: 1436.5 ft.1425.9 ft.
Traffic pattern: leftleft
Runway heading: 174 magnetic, 180 true354 magnetic, 000 true
Displaced threshold: 220 ft.no
Markings: nonprecision, in good conditionnonprecision, in good condition
Touchdown point: yes, no lightsyes, no lights
Obstructions: 15 ft. road, 300 ft. from runway, 6:1 slope to clear
RWY 17 APPROACH SLOPE 34:1 TO THE DISP THLD.
68 ft. pline, marked, 1562 ft. from runway, 20:1 slope to clear

Airport Ownership and Management from official FAA records

Ownership: Publicly-owned
Owner: WASHINGTON COUNTY
CO CMSNRS, WASH CO COURTHOUSE
WASHINGTON, KS 66968
Phone 785-325-2974
Manager: BRAD FORTENIER
303 C ST.
WASHINGTON, KS 66968
Phone (785) 747-6640

Airport Operational Statistics

Aircraft based on the field: 3
Single engine airplanes: 3
    
Aircraft operations: avg 33/week *
53% local general aviation
47% transient general aviation
* for 12-month period ending 19 September 2018

Additional Remarks

24 HR PHONE AVBL FOR PUBLIC USE WITH PHONE CARD.
FOR CD CTC KANSAS CITY ARTCC AT 913-254-8508.

Instrument Procedures

NOTE: All procedures below are presented as PDF files. If you need a reader for these files, you should download the free Adobe Reader.

NOT FOR NAVIGATION. Please procure official charts for flight.
FAA instrument procedures published for use from 02 January 2020 at 0901Z to 30 January 2020 at 0900Z.

 
IAPs - Instrument Approach Procedures
RNAV (GPS) RWY 17   download (191KB)
RNAV (GPS) RWY 35   download (200KB)
NOTE: Special Take-Off Minimums/Departure Procedures apply   download

Other nearby airports with instrument procedures:

KMYZ - Marysville Municipal Airport (21 nm E)
KCYW - Clay Center Municipal Airport (21 nm S)
KFBY - Fairbury Municipal Airport (27 nm N)
KRPB - Belleville Municipal Airport (29 nm W)
KCNK - Blosser Municipal Airport (30 nm W)
 
Loc | Ops | Rwys | IFR | FBO | Links
Com | Nav | Svcs | Stats | Notes

Kansas City Aviation Department
 
Area around K38 (Washington County Veteran's Memorial Airport)
 
Road maps at: MapQuest Bing Google
 
Aerial photo
WARNING: Photo may not be current or correct
Aerial photo of K38 (Washington County Veteran's Memorial Airport)
Do you have a better or more recent aerial photo of Washington County Veteran's Memorial Airport that you would like to share? If so, please send us your photo.

 
Sectional chart

 
Airport distance calculator
Flying to Washington County Veteran's Memorial Airport? Find the distance to fly.

From to K38

Sunrise and sunset
Times for 20-Jan-2020
 Local
(UTC-6)
 Zulu
(UTC)
Morning civil twilight07:1713:17
Sunrise07:4613:46
Sunset17:3223:32
Evening civil twilight18:0200:02

Current date and time
Zulu (UTC)  20-Jan-2020 06:26:40
Local (UTC-6)  20-Jan-2020 00:26:40
 
METAR
KMYZ 
21nm E 
200615Z AUTO 03003KT 10SM OVC070 M11/M16 A3061 RMK AO2
KCNK 
30nm W 
200555Z AUTO 10004KT 10SM FEW075 M11/M15 A3058 RMK AO2 SLP381 T11061150 11061 21106 410281106 58002
KHJH 
35nm NW 
200615Z AUTO 06003KT 10SM OVC075 M10/M15 A3060 RMK AO2 T11051154
KBIE 
36nm N 
200615Z AUTO 03003KT 10SM OVC070 M11/M17 A3061 RMK AO2 T11151168
KMHK 
40nm SE 
200552Z AUTO 00000KT 10SM OVC085 M10/M15 A3063 RMK AO2 SLP392 T11001150 11067 21106 410281106 51000
TAF
KMHK 
40nm SE 
200528Z 2006/2106 05004KT P6SM SCT070 FM201000 03006KT P6SM FEW150
NOTAMs
Click for the latest NOTAMs
NOTAMs are issued by the DoD/FAA and will open in a separate window not controlled by AirNav.

 

 
 

Would you like to see your business listed on this page?

 If your business provides an interesting product or service to pilots, flight crews, aircraft, or users of the Washington County Veteran's Memorial Airport, you should consider listing it here.  To start the listing process, click on the button below
 
Add a business
 

Other Pages about Washington County Veteran's Memorial Airport

Update a link
 
Copyright © AirNav, LLC. All rights reserved. Privacy Policy  Contact